Regional Weather Roundup
Issued by NWS

Home | Current Version | Previous Version | Text Only | Print | Product List | Glossary Off
Versions: 1 2 3 4 5 6 7 8 9 10 11 12 13 14 15 16 17 18 19 20 21 22 23 24 25 26 27

000
ASUS45 KBOU 291110
RWRCO

WEATHER ROUNDUP FOR COLORADO
NATIONAL WEATHER SERVICE DENVER/BOULDER CO
500 AM MDT THU SEP 29 2016

NOTE: "FAIR" INDICATES FEW OR NO CLOUDS BELOW 12000 FEET WITH NO
SIGNIFICANT WEATHER AND/OR OBSTRUCTIONS TO VISIBILITY.

COZ001>005-013-030-031-291200-
...NORTHWEST COLORADO...

CITY           SKY/WX    TMP DP  RH WIND       PRES   REMARKS
CRAIG          FAIR      46  39  76 CALM      30.39R
HAYDEN         FAIR      48  30  49 E7        30.41R
MEEKER         MOCLDY    53  38  56 E3        30.39R
MOUNT WERNER   NOT AVBL
STEAMBOAT SPGS FAIR      46  33  60 CALM      30.43R
WALDEN           N/A     34  27  75 SE6       30.51R WCI  29
$$

COZ006>008-011-291200-
...WEST CENTRAL VALLEYS...

CITY           SKY/WX    TMP DP  RH WIND       PRES   REMARKS
GRAND JUNCTION MOCLDY    63  41  44 E6        30.29R
MONTROSE       FAIR      56  39  53 S8        30.38R
EAGLE          FAIR      43  30  61 E8        30.45R
RIFLE          FAIR      53  44  71 W3        30.34S
DELTA          FAIR      61  39  43 NE3       30.34R
NUCLA          LGT RAIN  59  39  47 CALM      30.43R
$$

COZ017>023-064>068-291200-
...SOUTHWEST COLORADO...

CITY           SKY/WX    TMP DP  RH WIND       PRES   REMARKS
DURANGO        CLOUDY    53  41  63 E5        30.44R
CORTEZ         CLOUDY    55  52  89 E6        30.38S
PAGOSA SPRINGS FAIR      47  32  56 CALM      30.51S
TELLURIDE      FAIR      52  35  52 CALM      30.57R
WOLF CREEK PAS FAIR      39  27  60 MISG      30.76R
$$

COZ009-010-012-014-032>034-037-058>063-291200-
...CENTRAL COLORADO...

CITY           SKY/WX    TMP DP  RH WIND       PRES   REMARKS
ASPEN          FAIR      44  31  60 SW7       30.47R
BUENA VISTA    FAIR      40  28  63 CALM      30.54S
COPPER MTN     FAIR      46  19  34 S13G18    30.73S
BERTHOUD PASS  FAIR      36  23  60 NW10      30.76R
COTTONWOOD PAS FAIR      50  23  34 CALM      30.63R
GUNNISON       FAIR      41  28  60 VRB3      30.51R
KREMMLING      FAIR      34  25  69 CALM      30.49S
LEADVILLE      FAIR      35  24  64 NE5       30.62R WCI  31
MONARCH PASS   FAIR      41  23  48 S12       30.84S
SALIDA         FAIR      47  28  49 NW5       30.60R
SUNLIGHT       FAIR      48  32  53 SW3       30.68S
WILKERSON PASS FAIR      41  27  56 SW12G20   30.71S
$$

COZ069>075-291200-
...SAN LUIS VALLEY/SANGRE DE CRISTO MOUNTAINS...

CITY           SKY/WX    TMP DP  RH WIND       PRES   REMARKS
ALAMOSA        FAIR      41  27  57 W6        30.51R
LA VETA PASS   FAIR      45  23  42 MISG      30.64R
SAGUACHE       NOT AVBL
$$

COZ035-036-038>040-291200-
...NORTHERN COLORADO FRONT RANGE...

CITY           SKY/WX    TMP DP  RH WIND       PRES   REMARKS
DENVER INTL AP FAIR      50  36  58 S9        30.35S
DMNS CITY PARK   N/A     50  37  62 E8        30.35S
AURORA         NOT AVBL
FRONT RANGE AP NOT AVBL
ERIE MUNI ARPT FAIR      44  38  77 CALM      30.35S
BOULDER MUN AP FAIR      52  37  58 CALM      30.35S
CENTENNIAL     FAIR      53  35  50 S7        30.37F
BROOMFIELD     FAIR      54  36  50 CALM      30.37S
FORT COLLINS   FAIR      48  37  66 N5        30.35S
LONGMONT       FAIR      45  38  77 CALM      30.36S
$$

COZ041-046-047-076>085-087-088-291200-
...PIKES PEAK/PALMER DIVIDE AND SOUTHERN FOOTHILLS...

CITY           SKY/WX    TMP DP  RH WIND       PRES   REMARKS
COLO. SPRINGS  FAIR      47  36  65 N3        30.45S
A. F. ACADEMY  NOT AVBL
SCHRIEVER AFB  NOT AVBL
ELLICOTT       NOT AVBL
FALCON         FAIR      45  38  74 S3        30.48S
FORT CARSON    NOT AVBL
LIMON          FAIR      40  37  89 S3        30.42S
MONUMENT HILL  FAIR      43  36  75 S9        30.46S
TRINIDAD       FAIR      55  28  35 SW13      30.39R
$$

COZ042>045-048>051-090-091-291200-
...NORTHEAST COLORADO...

CITY           SKY/WX    TMP DP  RH WIND       PRES   REMARKS
GREELEY ARPT   FAIR      48  37  66 CALM      30.35R
AKRON          FAIR      51  39  63 S10       30.37F
BURLINGTON     FAIR      47  38  71 S10       30.40S
WRAY           FAIR      45  36  70 CALM      30.39
STERLING       FAIR      46  39  76 CALM      30.35S
HOLYOKE        FAIR      41  36  81 S3        30.39S
FORT MORGAN    FAIR      49  40  69 SE3       30.37S
$$

COZ086-089-092>099-291200-
...SOUTHEAST COLORADO...

CITY           SKY/WX    TMP DP  RH WIND       PRES   REMARKS
PUEBLO         FAIR      51  39  63 N10       30.37R
LA JUNTA       FAIR      51  41  68 E10       30.35S
LAMAR          FAIR      45  40  82 NE6       30.37R
SPRINGFIELD      N/A     44  40  85 S6        30.40S
$$




USA.gov is the U.S. government's official web portal to all federal, state and local government web resources and services.